Wind_Speed
11 9 7 6 6 4 3 1 0 1 1 3 4 4 5 6 5 5 5 6 7 7 7 6 6 6 6 6 6 6 5 5 4 5 5 5 5 5 4 4 4 5 5 5
12 12 11 9 7 5 4 2 1 1 0 2 2 2 3 3 3 3 3 4 5 5 5 5 5 5 5 5 5 6 5 4 4 4 4 4 4 4 4 4 4 4 4 4
15 14 13 11 9 7 5 4 3 3 1 0 1 2 2 2 1 2 2 3 3 3 4 4 4 4 4 4 5 5 5 4 4 3 3 3 3 3 4 4 4 4 4 4
18 17 15 13 11 9 8 7 6 4 2 3 1 1 2 1 0 1 1 1 2 2 2 3 3 3 3 4 4 4 5 5 4 3 3 3 3 3 3 3 3 4 4 5
20 18 17 15 13 12 11 10 9 7 5 4 4 2 3 2 2 1 0 0 0 1 1 2 2 3 3 3 3 4 4 4 3 3 3 3 4 3 3 4 4 5 5 6
21 20 19 17 15 14 12 11 11 9 8 8 7 5 4 3 3 2 2 2 2 2 2 3 3 4 4 4 4 4 3 3 3 4 4 5 4 4 4 5 5 6 6 7
22 21 21 20 18 16 14 12 11 11 11 11 9 8 6 5 4 4 4 4 4 4 4 4 5 4 4 5 4 4 4 4 4 5 5 5 5 5 5 6 6 7 7 8
22 22 21 21 20 19 17 15 14 13 12 12 11 11 8 7 6 5 5 5 6 6 6 6 6 5 5 5 5 5 5 5 5 5 6 5 6 6 6 7 7 7 8 9
22 23 22 21 21 21 20 19 16 15 14 13 13 13 10 9 8 7 7 8 7 8 8 8 7 7 7 7 7 7 6 6 6 6 6 6 6 6 7 7 8 8 9 9
23 23 23 22 21 22 22 21 18 18 17 16 16 14 13 11 10 9 9 9 9 10 10 10 9 9 9 8 8 8 8 7 7 7 8 7 7 7 7 8 8 9 9 10
23 23 23 22 22 22 22 21 21 19 19 17 17 17 14 13 12 11 11 10 11 11 11 11 11 11 10 9 9 9 9 9 9 9 9 9 9 9 9 9 9 10 10 11
23 23 23 23 22 22 22 21 20 20 19 19 18 18 16 15 14 13 13 12 12 12 12 12 12 12 11 10 10 10 10 10 10 10 10 10 10 10 10 10 11 11 11 12
24 24 23 22 22 23 23 22 21 20 19 19 18 17 16 16 15 15 15 14 14 13 12 13 13 12 12 12 11 12 12 12 12 11 11 10 10 10 11 11 11 12 12 13
26 25 24 22 22 23 23 23 22 21 20 19 19 18 19 17 16 15 15 15 15 14 14 14 13 13 13 13 13 13 13 13 13 13 12 12 12 12 11 11 12 13 14 14
26 27 26 26 26 25 25 25 24 23 22 20 19 20 20 19 17 17 17 17 16 16 15 15 14 14 14 14 14 14 14 14 14 14 14 14 13 13 12 13 13 14 16 16
27 28 27 27 27 27 26 26 25 25 24 22 21 21 21 20 18 18 18 17 17 16 16 16 16 16 16 15 16 15 15 16 16 16 16 16 15 14 14 15 15 16 17 18
28 28 27 27 27 26 27 26 26 26 25 23 23 22 21 20 20 19 19 19 18 18 17 17 17 17 17 17 17 17 17 18 18 17 17 17 17 17 16 17 17 18 19 19
29 28 28 27 27 28 27 26 26 26 25 25 26 25 23 22 21 20 20 20 20 19 19 19 19 18 19 19 18 18 18 18 18 18 18 18 18 18 19 19 19 20 20 20
30 30 29 28 28 27 28 27 25 25 25 26 26 26 25 24 23 23 22 21 21 20 20 20 20 20 21 20 20 20 20 19 20 19 19 19 20 20 21 21 21 21 20 21
31 31 30 30 29 28 28 27 26 26 27 26 27 26 26 25 25 24 23 22 22 22 22 22 22 22 23 23 22 22 22 21 21 21 21 21 21 22 22 21 21 21 22 22
32 31 32 31 31 30 30 28 27 28 28 27 27 27 27 26 26 25 24 24 24 24 24 24 24 24 25 25 24 23 23 22 22 22 23 23 23 23 23 23 23 23 23 24
33 32 33 32 31 31 30 28 29 29 29 28 28 28 27 27 27 27 26 26 26 26 27 26 26 26 26 26 26 26 25 24 24 24 24 24 25 25 24 24 24 24 24 25
33 33 33 34 34 32 31 29 28 28 28 29 28 28 28 28 28 29 29 28 28 28 28 28 28 29 29 28 28 27 26 26 25 25 25 25 25 26 25 25 25 25 26 26
33 34 34 35 34 33 32 31 30 30 29 29 29 28 29 30 30 31 31 30 29 29 29 29 29 30 31 30 29 29 28 27 27 26 26 26 26 26 26 27 26 26 26 27
33 34 35 35 35 34 33 33 32 31 30 29 29 29 29 29 30 30 30 30 30 30 30 30 29 29 29 29 29 29 28 28 28 27 26 26 26 26 26 27 27 27 28 28
33 34 35 35 35 35 34 34 33 33 32 31 31 31 30 30 31 31 31 31 31 31 30 30 30 30 30 30 30 30 30 29 29 28 27 27 27 27 27 28 29 29 29 29
Wind_Direction
203 202 208 208 197 194 189 165 162 346 124 97 75 58 48 45 58 69 73 72 70 67 66 66 68 66 67 71 74 74 77 78 80 82 78 76 72 70 67 59 59 55 56 57
209 212 211 211 210 210 205 203 232 279 184 125 87 51 30 31 38 50 70 74 73 68 64 59 53 54 56 60 67 71 64 71 77 79 74 68 64 61 54 52 52 53 53 42
214 216 216 214 215 216 220 215 223 241 264 235 78 21 343 355 23 50 68 81 72 64 57 49 37 37 42 49 52 52 52 59 67 71 67 59 48 41 41 43 33 27 23 19
219 221 221 221 222 223 226 225 226 235 258 297 321 324 326 326 236 121 81 70 66 42 36 28 20 16 30 40 34 30 36 37 46 54 45 32 23 20 17 15 4 357 351 350
224 223 222 223 224 226 229 231 233 241 255 269 281 283 301 275 228 208 238 323 359 350 347 357 357 353 360 8 11 12 12 13 16 20 14 6 2 356 350 351 348 346 344 343
227 227 224 223 225 226 232 238 241 246 254 260 262 261 270 269 244 239 248 270 281 292 300 310 321 328 334 341 344 345 344 343 344 347 351 354 352 343 336 337 340 339 336 336
229 229 229 228 230 233 234 239 251 251 253 257 260 257 253 256 249 246 257 267 277 287 291 297 299 304 312 317 321 324 322 320 319 325 334 338 343 337 329 325 326 328 328 326
230 233 232 232 232 235 235 235 239 242 248 255 260 260 257 253 247 249 260 268 274 281 283 288 288 288 297 301 302 308 308 307 305 308 316 322 327 331 334 332 328 325 324 324
228 233 236 235 235 236 237 236 238 242 245 248 254 260 259 254 254 256 260 265 271 278 282 281 277 279 286 288 292 293 297 300 302 299 299 308 316 319 325 328 327 325 322 321
230 234 237 238 238 239 237 237 239 241 241 247 258 263 261 255 255 257 261 265 272 279 284 282 278 279 281 282 284 286 289 293 297 297 296 301 304 309 314 317 321 324 322 321
232 235 238 238 237 240 238 238 239 242 241 244 253 260 260 258 255 257 263 266 271 278 280 278 279 279 277 278 279 283 284 285 289 293 295 296 295 304 308 310 310 311 314 315
231 233 237 239 239 238 237 237 239 242 244 244 249 255 256 258 259 258 260 267 272 278 280 277 279 280 275 277 278 280 280 281 284 288 290 291 293 299 303 304 304 305 306 307
231 231 236 240 241 239 237 237 239 241 243 245 249 255 255 253 256 258 262 265 268 274 277 277 279 280 275 274 277 278 278 279 281 284 287 289 293 296 300 302 302 302 303 304
232 233 232 233 237 240 239 239 240 242 243 247 248 253 254 252 255 257 258 261 264 267 271 272 275 276 273 274 276 277 276 278 280 280 283 287 291 294 296 298 299 300 300 302
233 235 235 236 238 240 241 242 243 243 244 247 249 253 255 253 255 256 258 259 262 264 266 268 271 273 271 273 275 275 276 278 279 280 282 284 289 291 294 297 298 299 300 301
234 236 238 241 242 242 241 240 241 243 244 247 248 250 253 254 254 255 257 257 260 262 263 265 269 272 272 272 273 274 276 278 279 280 281 282 286 289 292 296 297 298 299 300
234 235 237 241 243 243 241 240 242 243 244 246 248 249 252 253 252 254 254 255 258 260 263 264 266 269 271 273 273 274 276 278 278 279 278 280 282 284 288 292 294 297 298 298
234 235 238 242 243 243 242 240 242 244 245 245 246 248 252 254 254 255 254 254 257 259 261 263 265 267 267 269 271 273 276 276 277 280 279 279 280 282 285 288 292 294 296 296
235 236 238 239 242 245 243 241 242 244 247 246 247 249 251 254 255 255 253 254 257 260 262 262 262 265 266 268 269 272 274 275 276 280 280 279 279 281 285 287 288 290 291 293
238 238 238 239 239 242 245 243 244 246 248 247 247 249 250 250 251 254 253 254 256 259 262 261 261 263 265 266 268 270 274 277 279 280 280 279 278 279 283 285 286 287 289 291
238 238 237 239 241 244 246 245 246 247 249 248 249 248 248 249 249 250 251 253 255 258 261 263 261 261 263 265 267 271 274 275 276 277 278 278 278 279 282 283 283 284 288 292
237 238 237 238 241 244 246 247 246 248 250 250 250 249 249 250 251 250 250 250 252 257 260 262 261 261 263 265 267 270 272 274 274 274 276 277 277 279 282 283 282 283 286 291
236 237 238 240 242 245 248 248 248 249 251 251 251 250 250 251 253 253 251 251 254 257 259 261 262 262 262 263 267 269 272 274 274 274 276 277 280 281 281 281 282 283 286 289
238 238 240 241 243 245 247 248 248 249 250 250 251 252 250 251 252 253 252 251 254 257 259 261 262 261 261 262 265 269 271 272 273 274 276 277 279 281 281 281 282 285 287 288
239 241 242 243 244 245 246 246 248 249 249 248 249 250 251 251 251 252 253 252 252 255 258 259 261 262 262 263 265 266 267 268 270 272 274 276 278 279 281 281 282 284 286 289
239 241 242 244 244 245 245 245 246 247 248 248 248 249 251 252 252 253 254 253 253 255 257 259 261 262 262 261 263 264 265 266 268 270 272 274 277 279 280 282 282 284 288 291
Height
5914 5916 5918 5919 5920 5921 5921 5921 5921 5920 5919 5920 5919 5919 5918 5917 5916 5915 5915 5914 5914 5913 5912 5912 5911 5911 5910 5910 5909 5908 5908 5907 5907 5906 5905 5905 5904 5903 5903 5902 5901 5900 5900 5899
5913 5914 5916 5917 5918 5919 5919 5920 5920 5920 5919 5920 5919 5919 5919 5918 5917 5916 5915 5915 5915 5915 5914 5913 5913 5912 5911 5911 5910 5909 5909 5908 5908 5907 5906 5906 5905 5904 5903 5903 5902 5901 5900 5899
5910 5913 5913 5915 5916 5917 5918 5919 5920 5919 5919 5919 5920 5920 5919 5918 5918 5917 5916 5916 5916 5916 5915 5914 5914 5913 5912 5911 5911 5910 5910 5909 5908 5908 5907 5906 5906 5905 5904 5903 5902 5901 5900 5899
5907 5909 5910 5912 5914 5915 5917 5917 5918 5918 5919 5920 5920 5922 5920 5919 5918 5918 5917 5917 5917 5916 5916 5915 5915 5914 5913 5912 5912 5911 5910 5910 5909 5908 5908 5907 5906 5905 5904 5903 5902 5901 5900 5899
5903 5905 5907 5909 5912 5913 5915 5915 5916 5917 5918 5919 5919 5921 5921 5918 5918 5918 5918 5917 5917 5917 5916 5916 5915 5914 5914 5913 5912 5911 5910 5910 5909 5908 5908 5907 5906 5905 5904 5903 5902 5901 5900 5898
5900 5902 5904 5906 5908 5910 5912 5913 5914 5915 5917 5918 5918 5919 5920 5919 5918 5918 5917 5917 5917 5917 5916 5916 5915 5914 5914 5913 5912 5911 5910 5910 5909 5908 5908 5907 5906 5905 5904 5903 5902 5901 5900 5898
5896 5898 5900 5903 5905 5907 5909 5911 5913 5914 5916 5916 5917 5916 5918 5918 5917 5917 5917 5917 5916 5916 5916 5915 5915 5914 5913 5912 5912 5911 5910 5909 5909 5908 5907 5906 5905 5904 5903 5902 5901 5900 5899 5897
5893 5895 5897 5899 5902 5903 5905 5908 5911 5913 5915 5915 5914 5914 5916 5915 5915 5916 5916 5916 5915 5915 5915 5915 5914 5913 5912 5911 5911 5910 5909 5909 5908 5907 5906 5905 5904 5903 5902 5901 5900 5898 5897 5896
5889 5891 5893 5894 5897 5900 5901 5904 5907 5908 5910 5911 5912 5912 5912 5913 5913 5914 5914 5914 5914 5914 5913 5913 5912 5912 5911 5910 5909 5909 5908 5907 5907 5906 5905 5904 5903 5902 5901 5900 5898 5897 5895 5894
5883 5886 5888 5890 5892 5894 5897 5899 5902 5903 5905 5907 5909 5909 5910 5910 5911 5911 5911 5911 5911 5911 5911 5910 5910 5909 5909 5908 5908 5907 5906 5906 5905 5904 5903 5902 5901 5900 5899 5898 5896 5895 5893 5892
5878 5882 5883 5885 5887 5890 5892 5894 5896 5899 5901 5904 5906 5908 5907 5907 5908 5908 5908 5909 5909 5908 5908 5908 5907 5907 5906 5906 5905 5905 5904 5904 5903 5902 5901 5900 5899 5898 5897 5895 5894 5893 5891 5890
5873 5877 5878 5880 5882 5884 5887 5889 5892 5894 5896 5898 5901 5905 5903 5902 5903 5904 5905 5905 5905 5905 5905 5904 5904 5904 5903 5903 5903 5902 5902 5901 5900 5900 5899 5898 5897 5896 5894 5893 5892 5890 5889 5887
5867 5871 5873 5876 5879 5879 5881 5884 5886 5889 5891 5893 5896 5900 5898 5898 5899 5900 5901 5901 5902 5901 5901 5901 5901 5900 5900 5900 5900 5899 5899 5898 5897 5897 5896 5895 5894 5893 5892 5890 5889 5887 5886 5884
5862 5865 5869 5873 5874 5874 5876 5878 5881 5883 5886 5888 5891 5893 5893 5893 5894 5895 5896 5897 5897 5898 5898 5897 5897 5897 5897 5896 5896 5896 5895 5895 5894 5894 5893 5892 5891 5890 5889 5887 5885 5884 5882 5880
5856 5859 5861 5864 5866 5868 5871 5873 5875 5878 5881 5884 5886 5886 5887 5888 5889 5890 5891 5892 5892 5893 5893 5893 5893 5893 5893 5893 5892 5892 5892 5891 5891 5890 5889 5888 5887 5886 5885 5883 5882 5880 5878 5876
5850 5852 5855 5858 5860 5862 5864 5867 5870 5872 5874 5877 5879 5880 5881 5882 5884 5885 5886 5886 5887 5888 5888 5889 5889 5889 5889 5888 5888 5888 5888 5887 5886 5886 5885 5884 5883 5882 5881 5879 5878 5876 5874 5872
5843 5846 5849 5852 5854 5856 5858 5861 5864 5866 5868 5871 5872 5875 5875 5877 5878 5879 5880 5881 5882 5883 5883 5884 5884 5884 5884 5884 5884 5883 5883 5882 5881 5881 5880 5879 5878 5877 5876 5875 5873 5871 5869 5867
5836 5839 5842 5845 5848 5850 5854 5855 5858 5860 5862 5864 5866 5867 5869 5871 5873 5874 5874 5875 5876 5877 5878 5878 5879 5879 5879 5879 5878 5878 5878 5877 5876 5875 5875 5874 5873 5872 5871 5870 5868 5866 5864 5862
5829 5832 5835 5838 5840 5843 5846 5848 5851 5853 5855 5857 5859 5861 5863 5865 5866 5867 5868 5869 5871 5872 5872 5872 5873 5873 5873 5873 5873 5873 5872 5871 5871 5870 5869 5868 5867 5866 5865 5864 5862 5861 5859 5857
5821 5825 5829 5831 5834 5836 5839 5841 5844 5847 5847 5850 5852 5854 5856 5858 5860 5861 5862 5863 5864 5865 5866 5866 5866 5867 5867 5867 5867 5867 5867 5866 5865 5864 5863 5862 5861 5860 5859 5858 5856 5855 5853 5851
5814 5817 5820 5823 5826 5828 5831 5833 5837 5840 5841 5843 5844 5846 5848 5850 5852 5854 5855 5856 5857 5858 5859 5859 5859 5860 5860 5860 5860 5860 5860 5860 5859 5858 5857 5856 5855 5854 5852 5851 5849 5848 5847 5845
5806 5809 5812 5815 5818 5822 5823 5826 5829 5830 5832 5835 5836 5839 5840 5842 5844 5846 5847 5848 5850 5850 5851 5852 5852 5852 5853 5853 5853 5853 5853 5853 5852 5851 5850 5849 5848 5847 5845 5844 5842 5841 5840 5838
5797 5801 5804 5807 5811 5812 5815 5818 5820 5822 5824 5826 5828 5830 5832 5834 5836 5837 5839 5840 5841 5842 5843 5843 5844 5844 5844 5845 5845 5845 5845 5845 5844 5843 5843 5842 5841 5840 5838 5837 5835 5834 5833 5831
5788 5792 5795 5798 5801 5804 5806 5809 5811 5813 5816 5818 5820 5822 5824 5826 5827 5829 5830 5831 5833 5834 5834 5834 5835 5835 5836 5836 5837 5837 5837 5837 5837 5836 5836 5835 5834 5832 5831 5830 5828 5827 5825 5823
5779 5783 5785 5788 5791 5794 5797 5800 5802 5805 5807 5809 5811 5813 5815 5817 5818 5820 5821 5823 5824 5825 5826 5826 5826 5827 5828 5828 5828 5829 5829 5829 5829 5828 5828 5827 5826 5825 5824 5822 5821 5819 5818 5815
5770 5773 5776 5779 5782 5785 5788 5791 5793 5795 5798 5800 5802 5804 5806 5808 5809 5811 5812 5814 5815 5816 5817 5817 5818 5818 5819 5820 5820 5820 5821 5821 5821 5821 5820 5819 5818 5817 5816 5815 5813 5811 5810 5808